全球卫星定位系统 GPS 78星 (NAVSTAR 78 (USA 293))

导读

NAVSTAR 78(又名USA 293)是美国于2019年8月22日发射的GPS导航卫星,隶属于美国全球定位系统(GPS)的现代化组网项目。该卫星运行于中地球轨道,主要为全球用户提供高精度的定位、导航与授时服务,提升GPS系统在复杂环境下的覆盖能力与定位精度,增强了全球卫星导航系统的可靠性与服务稳定性,是美国GPS三代卫星组网进程中的重要组成部分。

Basic Information
目录编号:
44506
目录名称:
NAVSTAR 78 (USA 293)
国际标识:
2019-056A
轨道中心:
EARTH
卫星名称:
GPS 78星
卫星全名:
全球卫星定位系统 GPS 78星 (NAVSTAR 78 (USA 293))
卫星状态:
在轨 (已飞行2498 天)
发射日期:
2019-08-22 UTC
国别 :
美国 (US)
星等 :
--
Orbit Information
数据来源 国际轨道数据 AOE轨道数据
星历时间 2026-06-24T04:49:29+0800
14小时前
查看轨道信息
2026-06-20T23:00:00+0800
3天前
查看轨道信息
半长轴 26559.784km 26559.81km
偏心率 0.0062316 0.0062149
轨道倾角 55.634° 55.635°
近地点辐角 197.661° 197.595°
升交点赤经 330.876° 331.005°
平近点角 333.553° 152.163°
近地点 20016.137km 20016.606km
远地点 20347.157km 20346.74km
周期 717.954分钟 717.955分钟
每日圈数 2.0057 2.005697
Detailed Information
平衡模式:
三轴稳定
覆盖范围:
全球
运营商:
美国太空军
运营商所在国:
美国
制造商(研发单位):
洛克希德·马丁公司
制造商所在国:
美国
使用方式:
暂无
工作目标:
提供军用及民用全球定位与导航服务
预期寿命:
15年
Satellite Introduction
全球定位系统(英语:Global Positioning System,通常简称GPS),又称全球卫星定位系统,是美国国防部研制,美国太空军运营与维护的中地球轨道卫星导航系统。它可以为地球表面约98%的地区提供准确的定位、测速和高精度的标准时间。全球定位系统可满足位于全球地面任何一处或近地空间的军事用户连续且精确地确定三维位置、三维运动和时间的需求。该系统包括太空中的31颗GPS人造卫星.该卫星仍在工作。
2D Orbit Map
3D Orbit Map
Orbit Altitude Analysis Chart
Orbit Inclination Analysis Chart
Orbit Comprehensive Analysis Chart
View Comprehensive Chart